TimeAEST,TemperatureF,Dew PointF,Humidity,Sea Level PressureIn,VisibilityMPH,Wind Direction,Wind SpeedMPH,Gust SpeedMPH,PrecipitationIn,Events,Conditions,WindDirDegrees,DateUTC
12:00 AM,69,62,71,30.14,16,South,6.9,,,,Partly Cloudy,170,2013-04-11 14:00:00
12:00 AM,69.8,60.8,73,30.12,6.2,South,6.9,-,N/A,,Partly Cloudy,170,2013-04-11 14:00:00
12:30 AM,68.0,60.8,78,30.12,6.2,South,6.9,-,N/A,,Mostly Cloudy,180,2013-04-11 14:30:00
1:00 AM,68,61,73,30.12,,SSE,4.6,,,,,150,2013-04-11 15:00:00
1:00 AM,68.0,60.8,78,30.09,6.2,SSE,4.6,-,N/A,,Mostly Cloudy,150,2013-04-11 15:00:00
1:30 AM,68.0,60.8,78,30.09,6.2,South,5.8,-,N/A,,Mostly Cloudy,180,2013-04-11 15:30:00
2:00 AM,66.2,60.8,83,30.09,6.2,SSE,8.1,-,N/A,,Mostly Cloudy,160,2013-04-11 16:00:00
2:30 AM,66.2,59.0,78,30.06,6.2,South,8.1,-,N/A,,Mostly Cloudy,190,2013-04-11 16:30:00
3:00 AM,66,59,72,30.09,19,South,5.8,,,,Partly Cloudy,170,2013-04-11 17:00:00
3:00 AM,66.2,59.0,78,30.06,6.2,South,5.8,-,N/A,,Mostly Cloudy,170,2013-04-11 17:00:00
3:30 AM,66.2,59.0,78,30.06,6.2,SSW,5.8,-,N/A,,Mostly Cloudy,200,2013-04-11 17:30:00
4:00 AM,70,59,60,30.07,,SE,8.1,,,,,140,2013-04-11 18:00:00
4:00 AM,69.8,59.0,68,30.06,6.2,SE,8.1,-,N/A,,Mostly Cloudy,140,2013-04-11 18:00:00
4:30 AM,71.6,59.0,64,30.06,6.2,ESE,9.2,-,N/A,,Mostly Cloudy,120,2013-04-11 18:30:00
5:00 AM,68.0,60.8,78,30.06,6.2,ESE,9.2,-,N/A,,Mostly Cloudy,120,2013-04-11 19:00:00
5:30 AM,68.0,60.8,78,30.09,6.2,ESE,9.2,-,N/A,,Mostly Cloudy,120,2013-04-11 19:30:00
6:00 AM,66,60,76,30.11,19,SSE,8.1,,,,Partly Cloudy,160,2013-04-11 20:00:00
6:00 AM,66.2,60.8,83,30.09,6.2,SSE,8.1,-,N/A,,Mostly Cloudy,150,2013-04-11 20:00:00
6:30 AM,66.2,59.0,78,30.09,6.2,South,6.9,-,N/A,,Overcast,190,2013-04-11 20:30:00
7:00 AM,68,60,69,30.12,,SSE,6.9,,,,,160,2013-04-11 21:00:00
7:00 AM,68.0,60.8,78,30.09,6.2,SSE,6.9,-,N/A,,Overcast,160,2013-04-11 21:00:00
7:30 AM,69.8,60.8,73,30.09,6.2,SSE,8.1,-,N/A,,Overcast,150,2013-04-11 21:30:00
8:00 AM,69.8,60.8,73,30.12,6.2,SSE,8.1,-,N/A,,Overcast,160,2013-04-11 22:00:00
8:30 AM,71.6,60.8,69,30.12,6.2,SE,10.4,-,N/A,,Overcast,130,2013-04-11 22:30:00
9:00 AM,72,62,63,30.14,16,SE,8.1,,,,Overcast,140,2013-04-11 23:00:00
9:00 AM,71.6,62.6,73,30.12,6.2,SE,8.1,-,N/A,,Overcast,140,2013-04-11 23:00:00
9:30 AM,71.6,62.6,73,30.12,6.2,SE,12.7,-,N/A,,Mostly Cloudy,140,2013-04-11 23:30:00
10:00 AM,72,63,65,30.14,,East,9.2,,,,,90,2013-04-12 00:00:00
10:00 AM,71.6,62.6,73,30.12,6.2,East,9.2,-,N/A,,Mostly Cloudy,90,2013-04-12 00:00:00
10:30 AM,71.6,59.0,64,30.12,6.2,ESE,10.4,-,N/A,,Mostly Cloudy,120,2013-04-12 00:30:00
10:53 AM,68.0,62.6,83,30.12,1.9,East,16.1,-,N/A,Rain,Light Rain Showers,90,2013-04-12 00:53:00
11:00 AM,66.2,62.6,88,30.12,6.2,SE,8.1,-,N/A,Rain,Light Rain Showers,140,2013-04-12 01:00:00
11:15 AM,69.8,64.4,83,30.12,6.2,SSE,6.9,-,N/A,,Mostly Cloudy,150,2013-04-12 01:15:00
11:30 AM,69.8,62.6,78,30.12,6.2,SE,9.2,21.9,N/A,Rain,Light Rain Showers,130,2013-04-12 01:30:00
12:00 PM,69,63,76,30.12,6,SSE,8.1,,,Rain,Light Rain Showers,160,2013-04-12 02:00:00
12:00 PM,69.8,62.6,78,30.09,6.2,SSE,8.1,-,N/A,,Mostly Cloudy,160,2013-04-12 02:00:00
12:14 PM,68.0,60.8,78,30.09,5.6,SSE,8.1,-,N/A,Rain,Light Rain Showers,150,2013-04-12 02:14:00
12:30 PM,68.0,64.4,88,30.09,4.3,SSE,8.1,-,N/A,Rain,Light Rain Showers,150,2013-04-12 02:30:00
12:44 PM,69.8,66.2,88,30.09,1.9,SSE,8.1,-,N/A,Rain,Rain Showers,150,2013-04-12 02:44:00
1:00 PM,68,63,80,30.09,,SE,9.2,,,,,140,2013-04-12 03:00:00
1:00 PM,68.0,62.6,83,30.06,6.2,SE,9.2,-,N/A,Rain,Light Rain Showers,140,2013-04-12 03:00:00
1:30 PM,71.6,66.2,83,30.06,5.6,SSE,5.8,-,N/A,Rain,Light Rain Showers,160,2013-04-12 03:30:00
2:00 PM,73.4,66.2,78,30.04,6.2,SSE,8.1,-,N/A,,Mostly Cloudy,150,2013-04-12 04:00:00
2:30 PM,71.6,64.4,78,30.06,5.0,East,13.8,-,N/A,Rain,Light Rain Showers,100,2013-04-12 04:30:00
2:44 PM,69.8,64.4,83,30.06,5.6,East,12.7,25.3,N/A,Rain,Light Rain Showers,90,2013-04-12 04:44:00
3:00 PM,72,62,63,30.05,9,ESE,10.4,,,Rain,Light Rain Showers,120,2013-04-12 05:00:00
3:00 PM,71.6,62.6,73,30.04,6.2,ESE,10.4,-,N/A,,Mostly Cloudy,120,2013-04-12 05:00:00
3:20 PM,68.0,64.4,88,30.04,1.9,ESE,16.1,27.6,N/A,Rain,Light Rain Showers,110,2013-04-12 05:20:00
3:30 PM,68.0,66.2,94,30.04,5.6,ESE,12.7,-,N/A,Rain,Light Rain Showers,120,2013-04-12 05:30:00
4:00 PM,69,64,81,30.06,,SE,9.2,,,,,140,2013-04-12 06:00:00
4:00 PM,68.0,64.4,88,30.04,4.3,SE,9.2,-,N/A,,Mostly Cloudy,140,2013-04-12 06:00:00
4:30 PM,69.8,64.4,83,30.04,6.2,SSE,6.9,-,N/A,,Mostly Cloudy,160,2013-04-12 06:30:00
5:00 PM,68.0,62.6,83,30.04,6.2,SSE,6.9,-,N/A,,Mostly Cloudy,160,2013-04-12 07:00:00
5:30 PM,68.0,64.4,88,30.06,6.2,SSE,8.1,-,N/A,,Mostly Cloudy,150,2013-04-12 07:30:00
6:00 PM,69,64,78,30.08,9,SSE,8.1,,,,Scattered Clouds,160,2013-04-12 08:00:00
6:00 PM,69.8,64.4,83,30.06,6.2,SSE,8.1,-,N/A,,Mostly Cloudy,160,2013-04-12 08:00:00
6:30 PM,68.0,64.4,88,30.06,6.2,SSE,6.9,-,N/A,,Mostly Cloudy,160,2013-04-12 08:30:00
7:00 PM,68.0,64.4,88,30.09,6.2,South,6.9,-,N/A,,Mostly Cloudy,170,2013-04-12 09:00:00
7:30 PM,68.0,64.4,88,30.09,6.2,South,6.9,-,N/A,,Mostly Cloudy,180,2013-04-12 09:30:00
8:00 PM,68.0,64.4,88,30.06,6.2,South,6.9,-,N/A,,Mostly Cloudy,190,2013-04-12 10:00:00
8:30 PM,68.0,64.4,88,30.06,6.2,South,8.1,-,N/A,,Mostly Cloudy,190,2013-04-12 10:30:00
9:00 PM,68,64,84,30.09,16,South,6.9,,,,Partly Cloudy,190,2013-04-12 11:00:00
9:00 PM,68.0,64.4,88,30.09,6.2,South,6.9,-,N/A,,Scattered Clouds,190,2013-04-12 11:00:00
9:30 PM,68.0,64.4,88,30.06,6.2,SSW,6.9,-,N/A,,Scattered Clouds,200,2013-04-12 11:30:00
10:00 PM,68,64,84,30.07,,South,6.9,,,,,180,2013-04-12 12:00:00
10:00 PM,68.0,64.4,88,30.06,6.2,South,6.9,-,N/A,,Scattered Clouds,180,2013-04-12 12:00:00
10:33 PM,68.0,64.4,88,30.06,4.3,East,12.7,-,N/A,Rain,Rain Showers,100,2013-04-12 12:33:00
10:36 PM,68.0,66.2,94,30.06,2.5,ESE,10.4,-,N/A,Rain,Heavy Rain Showers,110,2013-04-12 12:36:00
10:42 PM,68.0,66.2,94,30.04,3.7,SE,9.2,-,N/A,Rain,Light Rain Showers,130,2013-04-12 12:42:00
11:00 PM,68.0,66.2,94,30.04,4.3,South,9.2,-,N/A,,Mostly Cloudy,180,2013-04-12 13:00:00
11:15 PM,68.0,66.2,94,30.04,5.6,SSE,10.4,-,N/A,,Mostly Cloudy,160,2013-04-12 13:15:00
11:30 PM,68.0,64.4,88,30.04,5.6,South,9.2,-,N/A,,Mostly Cloudy,170,2013-04-12 13:30:00